Weather History for Jefferson, NC

Change the Weather History Date:

Wednesday, December 26, 2012

  Actual Average Record
Temperature  
Mean Temperature 34 °F -  
Max Temperature 39 °F 40 °F 67 °F (1982)
Min Temperature 28 °F 21 °F -2 °F (1983)
Degree Days  
Heating Degree Days 32    
Moisture  
Dew Point 32 °F    
Average Humidity 91    
Maximum Humidity 98    
Minimum Humidity 76    
Precipitation  
Precipitation 1.03 in - - ()
Sea Level Pressure  
Sea Level Pressure 29.63 in    
Wind  
Wind Speed 9 mph (SSE)    
Max Wind Speed 33 mph    
Max Gust Speed 54 mph    
Visibility 4 miles    
Events Fog , Rain , Snow    
Averages and records for this station are not official NWS values.
T = Trace of Precipitation, MM = Missing Value Source: NWS Daily Summary

Daily Weather History Graph

Daily Weather History Graph

Search for Another Location

Airport:

Trip Planner

Search our weather history database for the weather conditions in past years. The results will help you decide how hot, cold, wet, or windy it might be!

Date:

Astronomy

Dec. 26, 2012 Rise Set
Actual Time 7:36 AM EST 5:17 PM EST
Civil Twilight 7:07 AM EST 5:45 PM EST
Nautical Twilight 6:34 AM EST 6:18 PM EST
Astronomical Twilight 6:03 AM EST 6:49 PM EST
Moon 4:08 PM EST (12/26) 5:59 AM EST (12/26)
Length of Visible Light 10h 38m
Length of Day
9h 41m
Waxing Gibbous, 97% of the Moon is Illuminated
Dec 26
Waxing Gibbous
Dec 28
Full
Jan 4
Last Quarter
Jan 11
New
Jan 18
First Quarter

Hourly Weather History & Observations

Time (EST) Temp. Windchill Dew Point Humidity Pressure Visibility Wind Dir Wind Speed Gust Speed Precip Events Conditions
12:15 AM 39.2 °F 37.0 °F 37.4 °F 93% 29.97 in 2.0 mi SE 3.5 mph - 0.01 in Rain Rain
12:35 AM 39.2 °F 32.0 °F 37.4 °F 93% 29.95 in 0.8 mi ESE 11.5 mph - 0.01 in Rain Light Rain
12:55 AM 39.2 °F 33.6 °F 37.6 °F 94% 29.93 in 7.0 mi ESE 8.1 mph - 0.02 in Rain Light Rain
1:15 AM 39.0 °F 32.8 °F 37.6 °F 95% 29.93 in 5.0 mi East 9.2 mph - 0.01 in Rain Rain
1:35 AM 38.8 °F 32.1 °F 37.4 °F 95% 29.92 in 4.0 mi ESE 10.4 mph - 0.04 in Rain Rain
1:55 AM 38.5 °F 31.6 °F 37.0 °F 95% 29.91 in 10.0 mi ESE 10.4 mph - 0.04 in Rain Light Rain
2:15 AM 37.9 °F 29.6 °F 36.5 °F 95% 29.89 in 5.0 mi ESE 13.8 mph 19.6 mph 0.01 in Rain Light Rain
2:35 AM 37.8 °F 29.4 °F 36.5 °F 95% 29.88 in 7.0 mi ESE 13.8 mph 23.0 mph 0.01 in Rain Light Rain
2:55 AM 37.4 °F 29.8 °F 36.0 °F 95% 29.88 in 5.0 mi ESE 11.5 mph 16.1 mph 0.02 in Rain Light Rain
3:15 AM 37.0 °F 29.3 °F 35.6 °F 95% 29.87 in 5.0 mi ESE 11.5 mph 21.9 mph 0.01 in Rain Light Rain
3:35 AM 36.5 °F 28.2 °F 34.9 °F 94% 29.86 in 2.0 mi ESE 12.7 mph 21.9 mph 0.01 in Rain Light Rain
3:55 AM 36.0 °F 30.3 °F 34.7 °F 95% 29.85 in 0.2 mi SE 6.9 mph - 0.03 in Rain Light Rain
4:15 AM 35.8 °F 27.3 °F 34.7 °F 96% 29.84 in 0.2 mi SE 12.7 mph 19.6 mph 0.03 in Rain Rain
4:35 AM 35.6 °F 30.7 °F 34.2 °F 94% 29.82 in 2.0 mi SE 5.8 mph - 0.08 in Rain Rain
4:55 AM 35.2 °F 30.3 °F 34.0 °F 95% 29.79 in 4.0 mi SE 5.8 mph - 0.10 in Rain Light Rain
5:15 AM 35.6 °F 28.6 °F 34.2 °F 94% 29.76 in 5.0 mi ESE 9.2 mph 18.4 mph N/A Rain Rain
5:55 AM 35.2 °F 32.4 °F 34.0 °F 95% 29.74 in 0.8 mi SSW 3.5 mph - 0.12 in Rain Rain
6:15 AM 35.1 °F 32.2 °F 33.8 °F 95% 29.74 in 1.0 mi South 3.5 mph - 0.06 in Rain Light Rain
6:35 AM 34.9 °F 30.8 °F 33.8 °F 96% 29.73 in 1.2 mi SE 4.6 mph - 0.12 in   Overcast
6:55 AM 35.1 °F 30.1 °F 33.8 °F 95% 29.68 in 1.2 mi ESE 5.8 mph - 0.21 in Rain Light Rain
7:15 AM 35.6 °F 27.1 °F 34.3 °F 95% 29.65 in 5.0 mi ESE 12.7 mph 20.7 mph 0.02 in Rain Light Rain
7:35 AM 35.8 °F 30.1 °F 34.3 °F 94% 29.64 in 3.0 mi East 6.9 mph 19.6 mph 0.06 in Rain Rain
7:55 AM 35.8 °F 30.9 °F 34.0 °F 93% 29.63 in 3.0 mi SE 5.8 mph 23.0 mph 0.13 in Rain Rain
8:15 AM 35.6 °F 31.7 °F 33.8 °F 93% 29.63 in 2.5 mi SSE 4.6 mph - 0.07 in Rain Light Rain
8:35 AM 35.6 °F - 33.8 °F 93% 29.63 in 2.0 mi Calm Calm - 0.13 in Rain Light Rain
8:55 AM 35.2 °F 29.5 °F 33.4 °F 93% 29.62 in 3.0 mi ESE 6.9 mph - 0.19 in Rain Heavy Rain
9:15 AM 34.3 °F 29.2 °F 32.9 °F 94% 29.64 in 1.5 mi WSW 5.8 mph - 0.06 in   Overcast
9:35 AM 33.8 °F 30.8 °F 32.4 °F 94% 29.68 in 1.2 mi ESE 3.5 mph - 0.12 in Snow Light Snow
9:55 AM 32.4 °F 26.9 °F 31.6 °F 97% 29.61 in 1.0 mi NE 5.8 mph - 0.17 in Snow Light Snow
10:15 AM 32.4 °F 27.9 °F 31.6 °F 97% 29.61 in 0.5 mi ENE 4.6 mph - N/A   Overcast
10:35 AM 32.4 °F - 31.8 °F 98% 29.61 in 0.5 mi Calm Calm - N/A Fog Fog
10:55 AM 32.4 °F - 31.8 °F 98% 29.59 in 0.5 mi Calm Calm - N/A   Overcast
11:15 AM 33.1 °F 30.0 °F 32.0 °F 96% 29.57 in 3.0 mi ESE 3.5 mph - N/A   Overcast
11:35 AM 33.8 °F 29.6 °F 32.5 °F 95% 29.54 in 3.0 mi ESE 4.6 mph - N/A   Drizzle
11:55 AM 33.8 °F 30.8 °F 32.5 °F 95% 29.52 in 2.5 mi ESE 3.5 mph - N/A   Heavy Drizzle
12:15 PM 33.8 °F 29.6 °F 32.9 °F 96% 29.52 in 2.0 mi East 4.6 mph - N/A Rain Heavy Rain
12:55 PM 33.8 °F - 32.9 °F 96% 29.48 in 2.5 mi Calm Calm - N/A   Drizzle
1:15 PM 33.8 °F - 32.5 °F 95% 29.46 in 0.8 mi Calm Calm - N/A Rain Light Rain
1:35 PM 33.8 °F - 32.9 °F 96% 29.45 in 1.0 mi Calm Calm - N/A Rain Light Rain
1:55 PM 34.0 °F 31.0 °F 32.9 °F 96% 29.45 in 2.5 mi WNW 3.5 mph - N/A Rain Rain
2:15 PM 34.2 °F - 33.1 °F 96% 29.45 in 2.5 mi Calm Calm - N/A   Drizzle
2:35 PM 34.0 °F 31.0 °F 32.9 °F 96% 29.44 in 2.5 mi NNW 3.5 mph - N/A Rain Light Rain
2:55 PM 34.0 °F 31.0 °F 32.9 °F 96% 29.45 in 5.0 mi NNW 3.5 mph - N/A   Overcast
3:15 PM 33.4 °F 28.1 °F 32.4 °F 96% 29.45 in 1.2 mi NW 5.8 mph - N/A Rain Light Rain
3:55 PM 33.8 °F 28.6 °F 32.5 °F 95% 29.46 in 5.0 mi NW 5.8 mph - N/A Rain Light Rain
4:15 PM 33.8 °F 29.6 °F 32.5 °F 95% 29.47 in 5.0 mi NNW 4.6 mph - N/A Rain Light Rain
4:35 PM 33.8 °F - 32.5 °F 95% 29.47 in 10.0 mi Calm Calm - N/A Rain Light Rain
4:55 PM 36.0 °F 27.1 °F 33.8 °F 92% 29.46 in 10.0 mi WNW 13.8 mph 17.3 mph N/A   Overcast
5:15 PM 36.5 °F 25.7 °F 32.0 °F 84% 29.46 in 10.0 mi WNW 20.7 mph 31.1 mph N/A Rain Rain
5:35 PM 35.8 °F 24.5 °F 31.1 °F 83% 29.46 in 10.0 mi West 21.9 mph 27.6 mph N/A   Overcast
5:55 PM 35.2 °F 23.5 °F 30.2 °F 82% 29.46 in 10.0 mi West 23.0 mph 39.1 mph N/A   Overcast
6:15 PM 34.9 °F 22.5 °F 30.0 °F 82% 29.47 in 5.0 mi West 25.3 mph 38.0 mph N/A Snow Light Snow
6:35 PM 34.3 °F 24.2 °F 29.7 °F 83% 29.49 in 10.0 mi West 16.1 mph 25.3 mph N/A Snow Light Snow
6:55 PM 34.0 °F 23.0 °F 28.2 °F 79% 29.50 in 10.0 mi West 18.4 mph 34.5 mph N/A   Overcast
7:15 PM 33.3 °F 22.8 °F 28.2 °F 82% 29.52 in 5.0 mi West 16.1 mph 24.2 mph N/A Snow Light Snow
7:35 PM 32.4 °F 20.0 °F 27.5 °F 82% 29.52 in 4.0 mi WNW 21.9 mph 34.5 mph N/A Snow Light Snow
7:55 PM 32.0 °F 18.9 °F 26.6 °F 80% 29.54 in 5.0 mi WNW 24.2 mph 36.8 mph N/A Snow Light Snow
8:15 PM 32.0 °F 19.8 °F 25.3 °F 76% 29.54 in 10.0 mi West 20.7 mph 38.0 mph N/A   Overcast
8:35 PM 31.6 °F 22.1 °F 25.3 °F 78% 29.55 in 7.0 mi West 12.7 mph 26.5 mph N/A   Overcast
8:55 PM 30.7 °F 20.9 °F 25.2 °F 80% 29.55 in 10.0 mi WNW 12.7 mph 24.2 mph N/A   Overcast
9:15 PM 30.2 °F 18.5 °F 24.8 °F 80% 29.55 in 10.0 mi WNW 17.3 mph 44.9 mph N/A   Overcast
9:35 PM 30.0 °F 17.2 °F 24.4 °F 80% 29.55 in 7.0 mi WNW 20.7 mph 40.3 mph N/A   Overcast
9:55 PM 29.8 °F 14.7 °F 24.3 °F 80% 29.55 in 5.0 mi WNW 29.9 mph 44.9 mph N/A   Haze
10:15 PM 29.5 °F 18.4 °F 23.9 °F 80% 29.57 in 4.0 mi NW 15.0 mph 47.2 mph N/A   Haze
10:35 PM 29.1 °F 16.0 °F 23.9 °F 81% 29.57 in 3.0 mi WNW 20.7 mph 54.1 mph N/A Snow Light Snow
10:55 PM 28.4 °F 12.5 °F 23.9 °F 83% 29.56 in 3.0 mi WNW 31.1 mph 49.5 mph N/A Snow Light Snow
11:15 PM 28.4 °F 13.5 °F 24.3 °F 84% 29.56 in 4.0 mi WNW 26.5 mph 48.3 mph N/A Snow Light Snow
11:35 PM 28.2 °F 11.8 °F 23.9 °F 84% 29.56 in 5.0 mi WNW 33.4 mph 50.6 mph N/A   Overcast